Regional Weather Roundup
Issued by NWS

Home | Current Version | Previous Version | Text Only | Print | Product List | Glossary On
Versions: 1 2 3 4 5 6 7 8 9 10 11 12 13 14 15 16 17 18 19 20 21 22 23 24 25 26 27 28 29 30 31 32 33 34 35 36 37 38 39 40 41 42 43 44 45 46 47 48 49 50
000
ASUS43 KDTX 220010
RWRMI
MICHIGAN HOURLY REGIONAL WEATHER ROUNDUP
NATIONAL WEATHER SERVICE DETROIT/PONTIAC MI
800 PM EDT FRI JUL 21 2017

NOTE: "FAIR" INDICATES FEW OR NO CLOUDS BELOW 12,000 FEET WITH NO
SIGNIFICANT WEATHER AND/OR OBSTRUCTION TO VISIBILITY.

MIZ047>049-052>055-059>063-066>070-074>076-081>083-220100-
SOUTHEAST LOWER MICHIGAN

CITY           SKY/WX    TMP DP  RH WIND       PRES   REMARKS
ADRIAN         MOSUNNY   83  71  67 CALM      29.95F
6HR MIN TEMP:  83; 6HR MAX TEMP:  88;

ALMA           CLOUDY    81  68  65 SW5       29.95S
ANN ARBOR      PTSUNNY   82  70  66 CALM      29.94F
BAD AXE        MOSUNNY   76  64  65 SE5       29.94F
6HR MIN TEMP:  76; 6HR MAX TEMP:  84;

CARO           SUNNY     82  67  61 CALM      29.93F
DETROIT CITY   CLOUDY    81  63  54 SE6       29.94S
6HR MIN TEMP:  81; 6HR MAX TEMP:  86;

DETROIT        CLOUDY    83  70  64 S6        29.94F
6HR MIN TEMP:  83; 6HR MAX TEMP:  89;

FLINT          MOSUNNY   81  67  62 SW3       29.95F
6HR MIN TEMP:  81; 6HR MAX TEMP:  87;

GROSSE ILE     CLOUDY    80  70  70 S5        29.93F
6HR MIN TEMP:  80; 6HR MAX TEMP:  87;

HILLSDALE      MOSUNNY   81  70  69 CALM      29.96S
HOWELL         CLOUDY    81  67  64 CALM      29.96S
6HR MIN TEMP:  80; 6HR MAX TEMP:  85;


CITY           SKY/WX    TMP DP  RH WIND       PRES   REMARKS
JACKSON        CLOUDY    81  68  64 NW3       29.95S
6HR MIN TEMP:  81; 6HR MAX TEMP:  89;

LAMBERTVILLE   PTCLDY    81  67  63 CALM      29.93S
6HR MIN TEMP:  81; 6HR MAX TEMP:  87;

LANSING        PTSUNNY   81  68  64 NW3       29.96S
6HR MIN TEMP:  81; 6HR MAX TEMP:  87;

LAPEER         FAIR      80  69  67 CALM      29.95F
6HR MIN TEMP:  80; 6HR MAX TEMP:  87;

MASON          CLOUDY    80  70  71 CALM      29.96R
MONROE         MOCLDY    82  68  62 CALM      29.92F
MT. CLEMENS    MOCLDY    79  66  63 SE5       29.93F
6HR MIN TEMP:  79; 6HR MAX TEMP:  84;

PONTIAC        CLOUDY    82  64  54 NW3       29.94F
6HR MIN TEMP:  82; 6HR MAX TEMP:  87;

PORT HOPE        N/A     76  60  57 SE7       29.92F
6HR MIN TEMP:  74; 6HR MAX TEMP:  78;

PORT HURON     CLOUDY    77  70  78 CALM      29.95S
TRI CITIES     CLOUDY    84  69  60 S7        29.93F
6HR MIN TEMP:  84; 6HR MAX TEMP:  88;

MIDLAND        FAIR      84  69  61 SW3       29.92S
6HR MIN TEMP:  84; 6HR MAX TEMP:  90;

TROY           CLOUDY    84  61  45 E3        29.96F
SAGINAW HB     PTSUNNY   82  66  57 S9        29.93S
$$
MIZ043>046-050>051-056>058-064>065-071>073-077>080-220100-
SOUTHWEST LOWER MICHIGAN

CITY           SKY/WX    TMP DP  RH WIND       PRES   REMARKS
BATTLE CREEK   CLOUDY    82  69  64 W6        29.97S
6HR MIN TEMP:  82; 6HR MAX TEMP:  86;

BENTON HARBOR  CLOUDY    76  70  82 CALM      29.94F
6HR MIN TEMP:  75; 6HR MAX TEMP:  89; 6HR PCP:  0.01;

BIG RAPIDS     CLOUDY    77  64  63 NW10G16   29.97S
6HR MIN TEMP:  77; 6HR MAX TEMP:  89;

COLDWATER      MOSUNNY   82  71  68 CALM      29.95F
6HR MIN TEMP:  82; 6HR MAX TEMP:  87;

FREMONT        LGT RAIN  76  66  71 CALM      29.95F
6HR MIN TEMP:  76; 6HR MAX TEMP:  89;

HOLLAND        CLOUDY    77  68  73 E6        29.94F
6HR MIN TEMP:  77; 6HR MAX TEMP:  86;

GRAND RAPIDS   LGT RAIN  79  69  71 NW7       29.96S
6HR MIN TEMP:  79; 6HR MAX TEMP:  86; 6HR PCP: TRACE;

IONIA          PTSUNNY   82  69  65 W5        29.95S
6HR MIN TEMP:  82; 6HR MAX TEMP:  86;

KALAMAZOO      CLOUDY    83  66  56 NW7       29.96S
6HR MIN TEMP:  83; 6HR MAX TEMP:  89;

LUDINGTON      LGT RAIN  73  70  91 CALM      29.93F
6HR MIN TEMP:  73; 6HR MAX TEMP:  82;

MARSHALL       MOSUNNY   82  70  68 CALM      29.95F
6HR MIN TEMP:  82; 6HR MAX TEMP:  87;

MOUNT PLEASANT CLOUDY    82  66  57 CALM      29.94R
MUSKEGON       CLOUDY    78  70  76 NE5       29.94F
6HR MIN TEMP:  76; 6HR MAX TEMP:  85; 6HR PCP: TRACE;

SOUTH HAVEN    CLOUDY    76  71  85 E3        29.93F
$$
MIZ016>042-220100-
NORTHERN LOWER MICHIGAN

CITY           SKY/WX    TMP DP  RH WIND       PRES   REMARKS
ALPENA         MOSUNNY   74  61  63 SE6       29.95S
6HR MIN TEMP:  74; 6HR MAX TEMP:  88;

BEAVER ISLAND  CLOUDY    76  63  64 CALM      29.93F
6HR MIN TEMP:  76; 6HR MAX TEMP:  83;

BELLAIRE       CLOUDY    78  66  66 CALM      29.94F
6HR MIN TEMP:  78; 6HR MAX TEMP:  83;

CADILLAC       CLOUDY    78  64  61 W7        29.98S
CHARLEVOIX     PTSUNNY   78  60  53 CALM      29.96F
6HR MIN TEMP:  74; 6HR MAX TEMP:  82;

FRANKFORT      CLOUDY    75  69  81 CALM      29.93F
GAYLORD        MOSUNNY   80  60  50 W6        29.97S
6HR MIN TEMP:  80; 6HR MAX TEMP:  85;

GRAYLING       CLOUDY    77  63  61 NW3       29.98S
6HR MIN TEMP:  77; 6HR MAX TEMP:  87;

HARBOR SPRINGS CLOUDY    75  61  62 CALM      29.94S
HOUGHTON LAKE  CLOUDY    78  65  63 NW3       29.97S
6HR MIN TEMP:  77; 6HR MAX TEMP:  86;

MANISTEE       PTSUNNY   74  69  85 E5        29.93F
OSCODA         MOSUNNY   73  65  75 NE10      29.93S
6HR MIN TEMP:  73; 6HR MAX TEMP:  84;

PELLSTON       CLOUDY    79  64  60 SW3       29.94S
6HR MIN TEMP:  78; 6HR MAX TEMP:  84;

ROGERS CITY    MOSUNNY   77  62  59 CALM      29.94S
TRAVERSE CITY  CLOUDY    79  64  60 CALM      29.93S
6HR MIN TEMP:  79; 6HR MAX TEMP:  87;

$$
MIZ007>008-015-220100-
EASTERN UPPER MICHIGAN

CITY           SKY/WX    TMP DP  RH WIND       PRES   REMARKS
KINROSS        CLOUDY    70  55  59 CALM      29.94F
6HR MIN TEMP:  70; 6HR MAX TEMP:  80;

MACKINAC ISLAN MOSUNNY   73  62  68 NE6       29.94S
6HR MIN TEMP:  73; 6HR MAX TEMP:  77;

NEWBERRY       CLOUDY    70  58  66 NE3       29.92F
6HR MIN TEMP:  70; 6HR MAX TEMP:  80;

S. S. MARIE    CLOUDY    73  52  47 NW5       29.92F
6HR MIN TEMP:  73; 6HR MAX TEMP:  82;

MUNISING         N/A     71  64  78 N3        29.90F
6HR MIN TEMP:  67; 6HR MAX TEMP:  73;

$$
MIZ004>006-011>014-085-220100-
CENTRAL UPPER MICHIGAN

CITY           SKY/WX    TMP DP  RH WIND       PRES   REMARKS
MANISTIQUE     MOSUNNY   71  68  89 CALM      29.93S
6HR MIN TEMP:  71; 6HR MAX TEMP:  81;

ESCANABA       MOSUNNY   75  70  84 E6        29.88F
6HR MIN TEMP:  74; 6HR MAX TEMP:  83;

MENOMINEE      PTSUNNY   80  68  66 SW9       29.88F
6HR MIN TEMP:  80; 6HR MAX TEMP:  86;

SAWYER-GWINN   SUNNY     72  61  68 E5        29.93F
$$
MIZ001>003-009>011-084-220100-
WESTERN UPPER MICHIGAN

CITY           SKY/WX    TMP DP  RH WIND       PRES   REMARKS
IRON MOUNTAIN  MOSUNNY   81  64  56 S6        29.88F
6HR MIN TEMP:  81; 6HR MAX TEMP:  87;

HOUGHTON       SUNNY     68  54  60 E5        29.90F
6HR MIN TEMP:  68; 6HR MAX TEMP:  80;

COPPER HARBOR    N/A     67  54  63 CALM      29.89F
6HR MIN TEMP:  62; 6HR MAX TEMP:  75;

IRONWOOD       CLOUDY    82  67  60 SE5       29.86S
6HR MIN TEMP:  76; 6HR MAX TEMP:  84;

$$

ABBREVIATIONS USED IN REMARKS
   TC - TEMPERATURE IN CELSIUS
  WCI - WIND CHILL INDEX
   HX - HEAT INDEX
  VSB - VISIBILITY




USA.gov is the U.S. government's official web portal to all federal, state and local government web resources and services.